User: anonymous   Login
Location: Unspecified
(0.0000°N, 0.0000°E)
Time: 00:18:35
(UTC+00:00)
Language:

IGS OPTICAL 5 - Orbit

View from above orbital plane
View from above orbital plane
View from above satellite
View from above satellite

Ground track
Ground track

The orbit data is extracted from the following two-line orbital elements,

1 40538U 15015A   17252.90381492 0.00000000  00000-0  00000-0 0    08
2 40538  97.4410 325.5100 0002000  55.4005 304.5994 15.17648439    06
Epoch (UTC): 09 September 2017 21:41:29
Eccentricity: 0.0002000
inclination: 97.4410°
perigee height: 511 km
apogee height: 514 km
right ascension of ascending node: 325.5100°
argument of perigee: 55.4005°
revolutions per day: 15.17648439
mean anomaly at epoch: 304.5994°
orbit number at epoch: 0

The dashed part of the orbit path shows where the satellite is in the earth's shadow,  

DLR